Back to catalog

STARLINK-32486

AliveCommunicationsVLEO
NORAD 61854·PAYLOAD·🇺🇸 United States

Launched Nov 7, 2024 from Cape Canaveral Space Force Station

Loading…

Next Passes (next 24 hours)

TLE

FreshSource: CelesTrak SupGP

Epoch: Sep 14, 2026, 21:44 UTC

1 61854C 24202K   26257.90604167  .00029139  00000+0  10558-2 0  2570
2 61854  42.9992 249.1709 0001414 263.9905 267.4405 15.27553459    12

Track STARLINK-32486 in real time with AllMySat

Download on the App Store